TimeEST,TemperatureF,Dew PointF,Humidity,Sea Level PressureIn,VisibilityMPH,Wind Direction,Wind SpeedMPH,Gust SpeedMPH,PrecipitationIn,Events,Conditions,WindDirDegrees,DateUTC
12:53 AM,55.0,33.1,43,30.29,10.0,NNE,10.4,-,N/A,,Clear,30,2013-02-18 05:53:00
1:53 AM,55.0,35.1,47,30.27,10.0,NNE,9.2,-,N/A,,Clear,20,2013-02-18 06:53:00
2:53 AM,55.0,35.1,47,30.26,10.0,NNE,12.7,-,N/A,,Clear,20,2013-02-18 07:53:00
3:53 AM,55.0,37.9,53,30.25,10.0,NNE,13.8,-,N/A,,Clear,30,2013-02-18 08:53:00
4:53 AM,55.0,36.0,49,30.25,10.0,NNE,12.7,-,N/A,,Clear,30,2013-02-18 09:53:00
5:53 AM,54.0,39.9,59,30.26,10.0,NNE,13.8,21.9,N/A,,Clear,30,2013-02-18 10:53:00
7:53 AM,55.0,43.0,64,30.28,10.0,NNE,12.7,-,N/A,,Clear,30,2013-02-18 12:53:00
9:53 AM,60.1,46.0,60,30.29,10.0,NNE,13.8,-,N/A,,Clear,30,2013-02-18 14:53:00
10:53 AM,63.0,48.0,58,30.29,10.0,NE,13.8,-,N/A,,Clear,50,2013-02-18 15:53:00
11:53 AM,66.0,50.0,56,30.28,10.0,NE,13.8,-,N/A,,Clear,50,2013-02-18 16:53:00
12:53 PM,66.9,50.0,54,30.25,10.0,NE,13.8,-,N/A,,Scattered Clouds,50,2013-02-18 17:53:00
1:53 PM,72.0,48.0,43,30.22,10.0,East,15.0,24.2,N/A,,Partly Cloudy,90,2013-02-18 18:53:00
2:53 PM,72.0,48.9,44,30.21,10.0,East,10.4,19.6,N/A,,Scattered Clouds,90,2013-02-18 19:53:00
3:53 PM,71.1,48.9,45,30.20,10.0,East,12.7,21.9,N/A,,Mostly Cloudy,100,2013-02-18 20:53:00
4:53 PM,70.0,48.9,47,30.20,10.0,East,9.2,16.1,N/A,,Mostly Cloudy,90,2013-02-18 21:53:00
5:53 PM,68.0,51.1,55,30.20,10.0,East,8.1,18.4,N/A,,Partly Cloudy,100,2013-02-18 22:53:00
6:53 PM,68.0,51.1,55,30.20,10.0,East,6.9,-,N/A,,Scattered Clouds,80,2013-02-18 23:53:00
7:53 PM,68.0,51.1,55,30.21,10.0,East,9.2,-,N/A,,Partly Cloudy,80,2013-02-19 00:53:00
8:53 PM,68.0,52.0,56,30.19,10.0,East,8.1,-,N/A,,Partly Cloudy,90,2013-02-19 01:53:00
9:53 PM,69.1,51.1,53,30.19,10.0,East,9.2,19.6,N/A,,Mostly Cloudy,100,2013-02-19 02:53:00
10:53 PM,70.0,52.0,53,30.19,10.0,East,6.9,-,N/A,,Mostly Cloudy,100,2013-02-19 03:53:00
11:53 PM,70.0,52.0,53,30.17,10.0,ESE,9.2,-,N/A,,Partly Cloudy,110,2013-02-19 04:53:00